^^
Paulen-Weather Station Historical Data
Daily Summary for January 01, 2020 Units:  Metric    English   Both
Daily Weekly Monthly Yearly Custom
  High: Low: Average:
Temperature: 8 °C 6 °C 6.9 °C
Dew Point: 6 °C 3 °C 4.5 °C
Humidity: 93% 76% 84%
Wind Speed: 34km/h 3km/h 20.6km/h
Wind Gust: 45km/h - -
Wind- - NW
Pressure: 1027.46 hPa 1018.25 hPa -
Precipitation: 0 mm    
Historical Graphs
 
 
Tabular Data for January 01, 2020
Time Temperature Dew Point Pressure Wind Wind Speed Wind Gust Humidity Rainfall Rate (Hourly) solar
00:04 7 °C 3 °C 1027.4 hPa NW 13 km/h 19 km/h 78% 0 mm 0 W/m2
00:09 6 °C 3 °C 1027.4 hPa NW 7 km/h 13 km/h 78% 0 mm 0 W/m2
00:14 6 °C 3 °C 1027.43 hPa WNW 5 km/h 8 km/h 79% 0 mm 0 W/m2
00:19 6 °C 3 °C 1027.43 hPa WNW 3 km/h 8 km/h 79% 0 mm 0 W/m2
00:24 6 °C 3 °C 1027.46 hPa W 7 km/h 6 km/h 79% 0 mm 0 W/m2
00:29 6 °C 3 °C 1027.46 hPa WNW 7 km/h 10 km/h 79% 0 mm 0 W/m2
00:34 6 °C 3 °C 1027.4 hPa W 7 km/h 11 km/h 79% 0 mm 0 W/m2
00:39 6 °C 3 °C 1027.4 hPa NW 10 km/h 10 km/h 79% 0 mm 0 W/m2
00:44 6 °C 3 °C 1027.33 hPa WNW 5 km/h 19 km/h 79% 0 mm 0 W/m2
00:49 6 °C 3 °C 1027.19 hPa NNW 7 km/h 8 km/h 79% 0 mm 0 W/m2
00:54 6 °C 3 °C 1027.16 hPa NW 8 km/h 8 km/h 80% 0 mm 0 W/m2
00:59 6 °C 3 °C 1027.09 hPa NW 7 km/h 11 km/h 80% 0 mm 0 W/m2
01:04 6 °C 3 °C 1026.99 hPa WNW 6 km/h 10 km/h 80% 0 mm 0 W/m2
01:09 6 °C 3 °C 1026.89 hPa W 8 km/h 10 km/h 81% 0 mm 0 W/m2
01:14 6 °C 3 °C 1026.79 hPa NW 9 km/h 10 km/h 81% 0 mm 0 W/m2
01:19 6 °C 3 °C 1026.69 hPa NW 13 km/h 16 km/h 82% 0 mm 0 W/m2
01:24 6 °C 3 °C 1026.58 hPa NW 15 km/h 16 km/h 82% 0 mm 0 W/m2
01:29 6 °C 3 °C 1026.55 hPa NW 18 km/h 19 km/h 83% 0 mm 0 W/m2
01:34 6 °C 3 °C 1026.41 hPa NW 16 km/h 24 km/h 83% 0 mm 0 W/m2
01:39 6 °C 3 °C 1026.31 hPa NW 18 km/h 19 km/h 83% 0 mm 0 W/m2
01:44 6 °C 3 °C 1026.31 hPa NW 15 km/h 21 km/h 83% 0 mm 0 W/m2
01:49 6 °C 3 °C 1026.31 hPa WNW 12 km/h 23 km/h 83% 0 mm 0 W/m2
01:54 6 °C 3 °C 1026.35 hPa NW 17 km/h 14 km/h 83% 0 mm 0 W/m2
01:59 6 °C 3 °C 1026.35 hPa NW 16 km/h 21 km/h 83% 0 mm 0 W/m2
02:04 6 °C 3 °C 1026.35 hPa NW 17 km/h 19 km/h 83% 0 mm 0 W/m2
02:09 6 °C 3 °C 1026.18 hPa NW 14 km/h 24 km/h 84% 0 mm 0 W/m2
02:14 6 °C 3 °C 1026.11 hPa NW 11 km/h 19 km/h 84% 0 mm 0 W/m2
02:19 6 °C 3 °C 1026.14 hPa NW 10 km/h 13 km/h 84% 0 mm 0 W/m2
02:24 6 °C 4 °C 1026.18 hPa NW 14 km/h 16 km/h 84% 0 mm 0 W/m2
02:29 6 °C 4 °C 1026.18 hPa WNW 16 km/h 21 km/h 85% 0 mm 0 W/m2
02:34 6 °C 4 °C 1026.21 hPa NW 16 km/h 16 km/h 84% 0 mm 0 W/m2
02:39 6 °C 4 °C 1026.18 hPa NW 18 km/h 23 km/h 83% 0 mm 0 W/m2
02:44 6 °C 3 °C 1026.14 hPa NW 18 km/h 21 km/h 83% 0 mm 0 W/m2
02:49 6 °C 4 °C 1026.14 hPa NW 17 km/h 24 km/h 83% 0 mm 0 W/m2
02:54 6 °C 4 °C 1026.04 hPa WNW 14 km/h 26 km/h 84% 0 mm 0 W/m2
02:59 6 °C 3 °C 1025.97 hPa WNW 22 km/h 21 km/h 83% 0 mm 0 W/m2
03:04 6 °C 3 °C 1025.97 hPa NW 18 km/h 32 km/h 82% 0 mm 0 W/m2
03:09 6 °C 3 °C 1025.94 hPa NW 23 km/h 23 km/h 81% 0 mm 0 W/m2
03:14 6 °C 3 °C 1025.91 hPa NW 20 km/h 32 km/h 81% 0 mm 0 W/m2
03:19 6 °C 3 °C 1025.8 hPa NW 24 km/h 23 km/h 81% 0 mm 0 W/m2
03:24 6 °C 3 °C 1025.91 hPa WNW 18 km/h 37 km/h 81% 0 mm 0 W/m2
03:29 6 °C 3 °C 1025.87 hPa NNW 19 km/h 24 km/h 81% 0 mm 0 W/m2
03:34 6 °C 3 °C 1025.87 hPa NW 17 km/h 24 km/h 82% 0 mm 0 W/m2
03:39 6 °C 3 °C 1025.84 hPa WNW 20 km/h 26 km/h 81% 0 mm 0 W/m2
03:44 7 °C 4 °C 1025.84 hPa W 18 km/h 23 km/h 81% 0 mm 0 W/m2
03:49 7 °C 4 °C 1025.77 hPa NW 21 km/h 19 km/h 81% 0 mm 0 W/m2
03:54 7 °C 4 °C 1025.8 hPa NW 18 km/h 29 km/h 81% 0 mm 0 W/m2
03:59 7 °C 3 °C 1025.67 hPa NNW 26 km/h 37 km/h 80% 0 mm 0 W/m2
04:04 7 °C 3 °C 1025.77 hPa NW 19 km/h 32 km/h 80% 0 mm 0 W/m2
04:09 7 °C 3 °C 1025.74 hPa NW 18 km/h 21 km/h 80% 0 mm 0 W/m2
04:14 7 °C 3 °C 1025.7 hPa WNW 20 km/h 26 km/h 80% 0 mm 0 W/m2
04:19 7 °C 3 °C 1025.6 hPa NW 20 km/h 26 km/h 80% 0 mm 0 W/m2
04:24 7 °C 3 °C 1025.53 hPa NW 17 km/h 32 km/h 80% 0 mm 0 W/m2
04:29 6 °C 3 °C 1025.4 hPa NW 13 km/h 23 km/h 80% 0 mm 0 W/m2
04:34 6 °C 3 °C 1025.36 hPa NW 13 km/h 21 km/h 80% 0 mm 0 W/m2
04:39 7 °C 3 °C 1025.3 hPa NW 18 km/h 16 km/h 80% 0 mm 0 W/m2
04:44 7 °C 3 °C 1025.23 hPa NW 17 km/h 23 km/h 80% 0 mm 0 W/m2
04:49 6 °C 3 °C 1025.16 hPa NW 16 km/h 19 km/h 81% 0 mm 0 W/m2
04:54 6 °C 3 °C 1025.03 hPa NW 18 km/h 21 km/h 81% 0 mm 0 W/m2
04:59 6 °C 3 °C 1024.99 hPa NW 10 km/h 21 km/h 81% 0 mm 0 W/m2
05:04 6 °C 3 °C 1024.99 hPa NW 16 km/h 16 km/h 81% 0 mm 0 W/m2
05:09 7 °C 4 °C 1024.96 hPa NW 18 km/h 19 km/h 81% 0 mm 0 W/m2
05:14 7 °C 4 °C 1024.92 hPa NW 18 km/h 23 km/h 81% 0 mm 0 W/m2
05:19 7 °C 4 °C 1024.86 hPa NW 16 km/h 26 km/h 81% 0 mm 0 W/m2
05:24 7 °C 4 °C 1024.79 hPa NW 19 km/h 21 km/h 81% 0 mm 0 W/m2
05:29 7 °C 4 °C 1024.82 hPa NW 17 km/h 24 km/h 82% 0 mm 0 W/m2
05:34 7 °C 4 °C 1024.82 hPa NW 24 km/h 23 km/h 81% 0 mm 0 W/m2
05:39 7 °C 4 °C 1024.86 hPa NW 16 km/h 32 km/h 80% 0 mm 0 W/m2
05:44 7 °C 4 °C 1024.76 hPa NW 25 km/h 24 km/h 81% 0 mm 0 W/m2
05:49 7 °C 4 °C 1024.72 hPa WNW 23 km/h 34 km/h 81% 0 mm 0 W/m2
05:54 7 °C 4 °C 1024.65 hPa NW 22 km/h 26 km/h 81% 0 mm 0 W/m2
05:59 7 °C 4 °C 1024.69 hPa NW 18 km/h 32 km/h 81% 0 mm 0 W/m2
06:04 7 °C 4 °C 1024.69 hPa NW 19 km/h 29 km/h 81% 0 mm 0 W/m2
06:09 7 °C 4 °C 1024.59 hPa NW 23 km/h 27 km/h 81% 0 mm 0 W/m2
06:14 7 °C 4 °C 1024.55 hPa WNW 17 km/h 27 km/h 81% 0 mm 0 W/m2
06:19 7 °C 4 °C 1024.52 hPa WNW 19 km/h 24 km/h 81% 0 mm 0 W/m2
06:24 7 °C 4 °C 1024.45 hPa WNW 21 km/h 21 km/h 81% 0 mm 0 W/m2
06:29 7 °C 4 °C 1024.45 hPa WNW 18 km/h 34 km/h 82% 0 mm 0 W/m2
06:34 7 °C 4 °C 1024.42 hPa NW 14 km/h 19 km/h 82% 0 mm 0 W/m2
06:39 7 °C 4 °C 1024.42 hPa WNW 21 km/h 16 km/h 81% 0 mm 0 W/m2
06:44 7 °C 4 °C 1024.42 hPa WNW 20 km/h 26 km/h 80% 0 mm 0 W/m2
06:49 7 °C 4 °C 1024.38 hPa WNW 20 km/h 24 km/h 80% 0 mm 0 W/m2
06:54 7 °C 4 °C 1024.42 hPa NW 20 km/h 26 km/h 80% 0 mm 0 W/m2
06:59 7 °C 4 °C 1024.38 hPa NW 25 km/h 23 km/h 79% 0 mm 0 W/m2
07:04 7 °C 4 °C 1024.28 hPa NW 20 km/h 35 km/h 78% 0 mm 0 W/m2
07:09 7 °C 4 °C 1024.28 hPa WNW 24 km/h 23 km/h 78% 0 mm 0 W/m2
07:14 7 °C 4 °C 1024.25 hPa NW 18 km/h 29 km/h 78% 0 mm 0 W/m2
07:19 7 °C 4 °C 1024.18 hPa NW 20 km/h 26 km/h 78% 0 mm 0 W/m2
07:24 7 °C 3 °C 1024.18 hPa NW 19 km/h 32 km/h 77% 0 mm 0 W/m2
07:29 7 °C 3 °C 1024.18 hPa NW 16 km/h 24 km/h 77% 0 mm 0 W/m2
07:34 7 °C 3 °C 1024.08 hPa NW 22 km/h 19 km/h 77% 0 mm 0 W/m2
07:39 7 °C 3 °C 1024.04 hPa NW 30 km/h 27 km/h 76% 0 mm 0 W/m2
07:44 7 °C 3 °C 1024.08 hPa WNW 24 km/h 35 km/h 76% 0 mm 0 W/m2
07:49 7 °C 4 °C 1024.08 hPa WNW 15 km/h 29 km/h 77% 0 mm 0 W/m2
07:54 7 °C 4 °C 1024.01 hPa NW 25 km/h 22 km/h 78% 0 mm 0 W/m2
07:59 7 °C 4 °C 1024.01 hPa WNW 23 km/h 34 km/h 78% 0 mm 0 W/m2
08:04 7 °C 4 °C 1023.91 hPa NW 21 km/h 29 km/h 78% 0 mm 0 W/m2
08:09 7 °C 4 °C 1023.91 hPa NNW 17 km/h 32 km/h 78% 0 mm 0 W/m2
08:14 7 °C 4 °C 1023.87 hPa NW 25 km/h 24 km/h 79% 0 mm 0 W/m2
08:19 7 °C 4 °C 1023.84 hPa NW 24 km/h 29 km/h 78% 0 mm 0 W/m2
08:24 7 °C 4 °C 1023.77 hPa NW 20 km/h 32 km/h 78% 0 mm 0 W/m2
08:29 7 °C 4 °C 1023.77 hPa NW 17 km/h 24 km/h 78% 0 mm 0 W/m2
08:34 7 °C 4 °C 1023.81 hPa NW 22 km/h 19 km/h 79% 0 mm 0 W/m2
08:39 7 °C 4 °C 1023.74 hPa NW 22 km/h 24 km/h 79% 0 mm 0 W/m2
08:44 7 °C 4 °C 1023.67 hPa NW 23 km/h 26 km/h 79% 0 mm 0 W/m2
08:49 7 °C 4 °C 1023.64 hPa NW 24 km/h 27 km/h 80% 0 mm 0 W/m2
08:54 7 °C 4 °C 1023.64 hPa NW 18 km/h 32 km/h 80% 0 mm 0 W/m2
08:59 7 °C 4 °C 1023.71 hPa NW 20 km/h 23 km/h 80% 0 mm 0 W/m2
09:04 7 °C 4 °C 1023.74 hPa NW 21 km/h 27 km/h 79% 0 mm 0 W/m2
09:09 7 °C 4 °C 1023.87 hPa NW 32 km/h 26 km/h 79% 0 mm 0 W/m2
09:14 7 °C 4 °C 1023.91 hPa W 16 km/h 42 km/h 79% 0 mm 0 W/m2
09:19 7 °C 4 °C 1023.84 hPa NW 24 km/h 27 km/h 80% 0 mm 0 W/m2
09:24 7 °C 4 °C 1023.81 hPa NW 26 km/h 34 km/h 80% 0 mm 0 W/m2
09:29 7 °C 4 °C 1023.81 hPa NW 24 km/h 37 km/h 79% 0 mm 0 W/m2
09:34 7 °C 4 °C 1023.87 hPa NNW 20 km/h 21 km/h 80% 0 mm 0 W/m2
09:39 7 °C 4 °C 1023.91 hPa NNW 23 km/h 32 km/h 80% 0 mm 5 W/m2
09:44 7 °C 4 °C 1023.87 hPa NW 19 km/h 32 km/h 80% 0 mm 5 W/m2
09:49 7 °C 4 °C 1023.91 hPa NW 18 km/h 29 km/h 81% 0 mm 7 W/m2
09:54 7 °C 4 °C 1023.98 hPa NW 16 km/h 23 km/h 81% 0 mm 7 W/m2
09:59 7 °C 4 °C 1023.94 hPa NW 19 km/h 19 km/h 81% 0 mm 9 W/m2
10:04 7 °C 4 °C 1023.87 hPa NW 14 km/h 23 km/h 81% 0 mm 9 W/m2
10:09 7 °C 4 °C 1023.77 hPa NW 18 km/h 26 km/h 81% 0 mm 11 W/m2
10:14 7 °C 4 °C 1023.77 hPa NW 22 km/h 23 km/h 81% 0 mm 14 W/m2
10:19 7 °C 4 °C 1023.74 hPa NW 17 km/h 27 km/h 81% 0 mm 14 W/m2
10:24 7 °C 4 °C 1023.67 hPa NW 20 km/h 32 km/h 81% 0 mm 16 W/m2
10:29 7 °C 4 °C 1023.74 hPa NW 27 km/h 32 km/h 80% 0 mm 16 W/m2
10:34 7 °C 4 °C 1023.71 hPa WNW 27 km/h 34 km/h 80% 0 mm 21 W/m2
10:39 7 °C 4 °C 1023.77 hPa NW 29 km/h 32 km/h 80% 0 mm 23 W/m2
10:44 7 °C 4 °C 1023.81 hPa NW 18 km/h 37 km/h 80% 0 mm 28 W/m2
10:49 7 °C 4 °C 1023.84 hPa WNW 19 km/h 21 km/h 81% 0 mm 33 W/m2
10:54 7 °C 4 °C 1023.87 hPa WNW 22 km/h 29 km/h 80% 0 mm 33 W/m2
10:59 7 °C 4 °C 1023.74 hPa W 23 km/h 26 km/h 80% 0 mm 35 W/m2
11:04 7 °C 4 °C 1023.74 hPa NW 23 km/h 27 km/h 80% 0 mm 37 W/m2
11:09 7 °C 4 °C 1023.81 hPa NW 17 km/h 26 km/h 81% 0 mm 42 W/m2
11:14 7 °C 4 °C 1023.81 hPa NW 26 km/h 29 km/h 81% 0 mm 42 W/m2
11:19 7 °C 4 °C 1023.74 hPa NW 21 km/h 34 km/h 81% 0 mm 54 W/m2
11:24 7 °C 4 °C 1023.71 hPa NW 21 km/h 32 km/h 81% 0 mm 62 W/m2
11:29 7 °C 4 °C 1023.64 hPa NW 23 km/h 24 km/h 81% 0 mm 62 W/m2
11:34 7 °C 4 °C 1023.67 hPa NW 26 km/h 24 km/h 81% 0 mm 63 W/m2
11:39 7 °C 4 °C 1023.64 hPa NW 26 km/h 39 km/h 81% 0 mm 63 W/m2
11:44 7 °C 4 °C 1023.67 hPa WNW 21 km/h 32 km/h 81% 0 mm 51 W/m2
11:49 7 °C 4 °C 1023.54 hPa WNW 21 km/h 29 km/h 81% 0 mm 56 W/m2
11:54 7 °C 4 °C 1023.43 hPa NW 21 km/h 29 km/h 81% 0 mm 56 W/m2
11:59 7 °C 4 °C 1023.4 hPa NW 21 km/h 27 km/h 82% 0 mm 49 W/m2
12:04 7 °C 5 °C 1023.33 hPa NW 25 km/h 39 km/h 82% 0 mm 54 W/m2
12:09 7 °C 5 °C 1023.3 hPa NW 19 km/h 39 km/h 83% 0 mm 56 W/m2
12:14 7 °C 5 °C 1023.2 hPa NW 21 km/h 27 km/h 83% 0 mm 49 W/m2
12:19 7 °C 5 °C 1023.2 hPa NW 28 km/h 24 km/h 83% 0 mm 49 W/m2
12:24 7 °C 5 °C 1023.27 hPa NNW 25 km/h 35 km/h 83% 0 mm 40 W/m2
12:29 7 °C 5 °C 1023.3 hPa NW 24 km/h 37 km/h 84% 0 mm 40 W/m2
12:34 7 °C 5 °C 1023.37 hPa NW 25 km/h 32 km/h 84% 0 mm 47 W/m2
12:39 7 °C 5 °C 1023.37 hPa NW 21 km/h 34 km/h 83% 0 mm 42 W/m2
12:44 7 °C 4 °C 1023.33 hPa NW 24 km/h 26 km/h 83% 0 mm 40 W/m2
12:49 7 °C 4 °C 1023.37 hPa NW 19 km/h 29 km/h 83% 0 mm 40 W/m2
12:54 7 °C 5 °C 1023.33 hPa WNW 25 km/h 32 km/h 83% 0 mm 35 W/m2
12:59 7 °C 5 °C 1023.3 hPa NW 30 km/h 35 km/h 84% 0 mm 39 W/m2
13:04 7 °C 5 °C 1023.23 hPa NW 23 km/h 37 km/h 84% 0 mm 39 W/m2
13:09 7 °C 5 °C 1023.13 hPa WNW 34 km/h 45 km/h 84% 0 mm 40 W/m2
13:14 7 °C 5 °C 1023.13 hPa NW 25 km/h 42 km/h 84% 0 mm 37 W/m2
13:19 7 °C 5 °C 1022.99 hPa WNW 29 km/h 34 km/h 84% 0 mm 35 W/m2
13:24 7 °C 5 °C 1022.89 hPa WNW 15 km/h 39 km/h 84% 0 mm 35 W/m2
13:29 7 °C 5 °C 1022.82 hPa NW 22 km/h 23 km/h 85% 0 mm 35 W/m2
13:34 7 °C 5 °C 1022.72 hPa NW 19 km/h 29 km/h 85% 0 mm 32 W/m2
13:39 7 °C 5 °C 1022.62 hPa WNW 27 km/h 29 km/h 85% 0 mm 30 W/m2
13:44 7 °C 5 °C 1022.49 hPa NW 20 km/h 27 km/h 86% 0 mm 28 W/m2
13:49 7 °C 5 °C 1022.45 hPa NW 18 km/h 23 km/h 86% 0 mm 30 W/m2
13:54 7 °C 5 °C 1022.38 hPa NW 21 km/h 24 km/h 86% 0 mm 30 W/m2
13:59 7 °C 5 °C 1022.32 hPa NNW 16 km/h 26 km/h 86% 0 mm 28 W/m2
14:04 7 °C 5 °C 1022.25 hPa NW 19 km/h 19 km/h 86% 0 mm 35 W/m2
14:09 7 °C 5 °C 1022.28 hPa WNW 22 km/h 26 km/h 86% 0 mm 35 W/m2
14:14 7 °C 5 °C 1022.28 hPa WNW 24 km/h 34 km/h 86% 0 mm 32 W/m2
14:19 7 °C 5 °C 1022.18 hPa NW 25 km/h 32 km/h 86% 0 mm 39 W/m2
14:24 7 °C 5 °C 1022.18 hPa W 34 km/h 32 km/h 85% 0 mm 39 W/m2
14:29 7 °C 5 °C 1022.18 hPa NW 21 km/h 43 km/h 85% 0 mm 30 W/m2
14:34 7 °C 5 °C 1022.11 hPa WNW 28 km/h 27 km/h 86% 0 mm 28 W/m2
14:39 7 °C 5 °C 1022.11 hPa NW 22 km/h 32 km/h 86% 0 mm 28 W/m2
14:44 7 °C 5 °C 1022.01 hPa NW 25 km/h 29 km/h 86% 0 mm 25 W/m2
14:49 7 °C 5 °C 1022.08 hPa NW 23 km/h 35 km/h 86% 0 mm 19 W/m2
14:54 7 °C 5 °C 1022.15 hPa NW 18 km/h 32 km/h 87% 0 mm 18 W/m2
14:59 7 °C 5 °C 1022.11 hPa NW 14 km/h 21 km/h 87% 0 mm 14 W/m2
15:04 7 °C 5 °C 1022.11 hPa NW 19 km/h 23 km/h 87% 0 mm 16 W/m2
15:09 7 °C 5 °C 1022.05 hPa WNW 25 km/h 26 km/h 87% 0 mm 16 W/m2
15:14 7 °C 5 °C 1022.08 hPa NW 21 km/h 27 km/h 87% 0 mm 9 W/m2
15:19 7 °C 5 °C 1022.05 hPa NW 18 km/h 21 km/h 88% 0 mm 7 W/m2
15:24 7 °C 5 °C 1021.94 hPa NW 20 km/h 24 km/h 89% 0 mm 7 W/m2
15:29 7 °C 5 °C 1021.84 hPa NW 19 km/h 24 km/h 90% 0 mm 7 W/m2
15:34 7 °C 5 °C 1021.78 hPa NNW 19 km/h 29 km/h 90% 0 mm 5 W/m2
15:39 7 °C 5 °C 1021.74 hPa WNW 15 km/h 24 km/h 90% 0 mm 5 W/m2
15:44 7 °C 5 °C 1021.71 hPa W 23 km/h 27 km/h 89% 0 mm 5 W/m2
15:49 7 °C 5 °C 1021.54 hPa WNW 18 km/h 34 km/h 89% 0 mm 5 W/m2
15:54 7 °C 5 °C 1021.64 hPa NW 19 km/h 23 km/h 90% 0 mm 0 W/m2
15:59 7 °C 5 °C 1021.64 hPa NNW 18 km/h 24 km/h 90% 0 mm 5 W/m2
16:04 7 °C 5 °C 1021.5 hPa NW 21 km/h 23 km/h 90% 0 mm 5 W/m2
16:09 7 °C 5 °C 1021.61 hPa NNW 20 km/h 29 km/h 90% 0 mm 0 W/m2
16:14 7 °C 5 °C 1021.57 hPa NW 23 km/h 29 km/h 90% 0 mm 0 W/m2
16:19 7 °C 5 °C 1021.57 hPa WNW 23 km/h 29 km/h 90% 0 mm 0 W/m2
16:24 7 °C 5 °C 1021.57 hPa NW 23 km/h 29 km/h 90% 0 mm 0 W/m2
16:29 7 °C 5 °C 1021.44 hPa NNW 27 km/h 35 km/h 90% 0 mm 0 W/m2
16:34 7 °C 5 °C 1021.37 hPa WNW 20 km/h 29 km/h 90% 0 mm 0 W/m2
16:39 7 °C 5 °C 1021.37 hPa NNW 18 km/h 24 km/h 91% 0 mm 0 W/m2
16:44 7 °C 6 °C 1021.23 hPa WNW 15 km/h 19 km/h 91% 0 mm 0 W/m2
16:49 7 °C 6 °C 1021.13 hPa NW 18 km/h 26 km/h 92% 0 mm 0 W/m2
16:54 7 °C 6 °C 1021.03 hPa WNW 17 km/h 23 km/h 92% 0 mm 0 W/m2
16:59 7 °C 6 °C 1021.1 hPa NW 15 km/h 21 km/h 92% 0 mm 0 W/m2
17:04 7 °C 6 °C 1021.1 hPa NW 13 km/h 16 km/h 93% 0 mm 0 W/m2
17:09 7 °C 6 °C 1021.03 hPa NW 17 km/h 23 km/h 93% 0 mm 0 W/m2
17:14 7 °C 6 °C 1020.96 hPa WNW 18 km/h 19 km/h 93% 0 mm 0 W/m2
17:19 7 °C 6 °C 1020.93 hPa WNW 18 km/h 32 km/h 93% 0 mm 0 W/m2
17:24 7 °C 6 °C 1020.89 hPa NW 17 km/h 32 km/h 92% 0 mm 0 W/m2
17:29 7 °C 6 °C 1020.86 hPa NW 23 km/h 19 km/h 92% 0 mm 0 W/m2
17:34 7 °C 6 °C 1020.62 hPa NW 20 km/h 27 km/h 92% 0 mm 0 W/m2
17:39 7 °C 6 °C 1020.49 hPa WNW 27 km/h 26 km/h 92% 0 mm 0 W/m2
17:44 7 °C 6 °C 1020.35 hPa NW 21 km/h 29 km/h 92% 0 mm 0 W/m2
17:49 7 °C 6 °C 1020.25 hPa WNW 13 km/h 24 km/h 91% 0 mm 0 W/m2
17:54 7 °C 6 °C 1020.22 hPa WNW 27 km/h 19 km/h 90% 0 mm 0 W/m2
17:59 7 °C 6 °C 1020.29 hPa NW 25 km/h 35 km/h 90% 0 mm 0 W/m2
18:04 7 °C 6 °C 1020.25 hPa NW 24 km/h 32 km/h 90% 0 mm 0 W/m2
18:09 7 °C 6 °C 1020.18 hPa WNW 20 km/h 29 km/h 90% 0 mm 0 W/m2
18:14 7 °C 6 °C 1020.52 hPa WNW 21 km/h 23 km/h 90% 0 mm 0 W/m2
18:19 7 °C 6 °C 1020.59 hPa NNW 25 km/h 27 km/h 90% 0 mm 0 W/m2
18:24 7 °C 6 °C 1020.66 hPa NW 17 km/h 29 km/h 90% 0 mm 0 W/m2
18:29 7 °C 6 °C 1020.45 hPa NW 19 km/h 23 km/h 89% 0 mm 0 W/m2
18:34 7 °C 6 °C 1020.39 hPa NW 19 km/h 24 km/h 89% 0 mm 0 W/m2
18:39 7 °C 6 °C 1020.32 hPa NNW 20 km/h 34 km/h 89% 0 mm 0 W/m2
18:44 7 °C 6 °C 1020.12 hPa W 22 km/h 29 km/h 89% 0 mm 0 W/m2
18:49 7 °C 6 °C 1020.08 hPa NW 25 km/h 32 km/h 88% 0 mm 0 W/m2
18:54 7 °C 6 °C 1020.01 hPa WNW 30 km/h 29 km/h 88% 0 mm 0 W/m2
18:59 7 °C 6 °C 1019.95 hPa NW 27 km/h 34 km/h 88% 0 mm 0 W/m2
19:04 7 °C 6 °C 1019.91 hPa NW 26 km/h 32 km/h 88% 0 mm 0 W/m2
19:09 7 °C 6 °C 1019.71 hPa WNW 25 km/h 39 km/h 88% 0 mm 0 W/m2
19:14 7 °C 6 °C 1019.68 hPa NNW 23 km/h 29 km/h 88% 0 mm 0 W/m2
19:19 7 °C 6 °C 1019.61 hPa NNW 24 km/h 27 km/h 88% 0 mm 0 W/m2
19:24 7 °C 6 °C 1019.81 hPa WNW 26 km/h 32 km/h 88% 0 mm 0 W/m2
19:29 7 °C 6 °C 1019.84 hPa NW 27 km/h 32 km/h 89% 0 mm 0 W/m2
19:34 7 °C 6 °C 1019.74 hPa NW 29 km/h 32 km/h 89% 0 mm 0 W/m2
19:39 7 °C 6 °C 1019.78 hPa NW 28 km/h 34 km/h 88% 0 mm 0 W/m2
19:44 7 °C 6 °C 1019.71 hPa WSW 22 km/h 32 km/h 88% 0 mm 0 W/m2
19:49 8 °C 6 °C 1019.68 hPa WNW 24 km/h 34 km/h 88% 0 mm 0 W/m2
19:54 7 °C 6 °C 1019.71 hPa NNW 25 km/h 29 km/h 88% 0 mm 0 W/m2
19:59 8 °C 6 °C 1019.68 hPa WNW 28 km/h 27 km/h 87% 0 mm 0 W/m2
20:04 8 °C 6 °C 1019.74 hPa NW 25 km/h 40 km/h 87% 0 mm 0 W/m2
20:09 8 °C 6 °C 1019.78 hPa W 18 km/h 32 km/h 87% 0 mm 0 W/m2
20:14 8 °C 6 °C 1019.81 hPa ESE 17 km/h 23 km/h 88% 0 mm 0 W/m2
20:19 8 °C 6 °C 1019.81 hPa NW 25 km/h 19 km/h 88% 0 mm 0 W/m2
20:24 8 °C 6 °C 1019.84 hPa WNW 28 km/h 34 km/h 88% 0 mm 0 W/m2
20:29 8 °C 6 °C 1019.98 hPa WNW 25 km/h 34 km/h 88% 0 mm 0 W/m2
20:34 8 °C 6 °C 1020.01 hPa WNW 18 km/h 32 km/h 88% 0 mm 0 W/m2
20:39 8 °C 6 °C 1020.01 hPa WNW 23 km/h 23 km/h 88% 0 mm 0 W/m2
20:44 8 °C 6 °C 1019.91 hPa NW 26 km/h 32 km/h 88% 0 mm 0 W/m2
20:49 8 °C 6 °C 1019.88 hPa NW 23 km/h 32 km/h 88% 0 mm 0 W/m2
20:54 8 °C 6 °C 1019.68 hPa W 27 km/h 32 km/h 88% 0 mm 0 W/m2
20:59 8 °C 6 °C 1019.61 hPa NW 21 km/h 27 km/h 87% 0 mm 0 W/m2
21:04 8 °C 6 °C 1019.61 hPa NW 23 km/h 24 km/h 87% 0 mm 0 W/m2
21:09 8 °C 6 °C 1019.57 hPa NW 24 km/h 27 km/h 88% 0 mm 0 W/m2
21:14 8 °C 6 °C 1019.57 hPa W 26 km/h 32 km/h 88% 0 mm 0 W/m2
21:19 7 °C 6 °C 1019.54 hPa WNW 23 km/h 32 km/h 88% 0 mm 0 W/m2
21:24 7 °C 6 °C 1019.44 hPa NW 27 km/h 24 km/h 88% 0 mm 0 W/m2
21:29 7 °C 6 °C 1019.4 hPa NW 26 km/h 32 km/h 88% 0 mm 0 W/m2
21:34 7 °C 6 °C 1019.3 hPa W 24 km/h 27 km/h 87% 0 mm 0 W/m2
21:39 7 °C 5 °C 1019.2 hPa NW 29 km/h 37 km/h 86% 0 mm 0 W/m2
21:44 7 °C 5 °C 1019.1 hPa N 25 km/h 32 km/h 86% 0 mm 0 W/m2
21:49 7 °C 5 °C 1019.07 hPa NW 27 km/h 32 km/h 87% 0 mm 0 W/m2
21:54 7 °C 5 °C 1019 hPa W 23 km/h 32 km/h 87% 0 mm 0 W/m2
21:59 7 °C 5 °C 1019.03 hPa WNW 19 km/h 26 km/h 87% 0 mm 0 W/m2
22:04 7 °C 5 °C 1019 hPa WNW 29 km/h 26 km/h 85% 0 mm 0 W/m2
22:09 7 °C 5 °C 1019.03 hPa WNW 26 km/h 37 km/h 85% 0 mm 0 W/m2
22:14 7 °C 5 °C 1019 hPa NW 24 km/h 29 km/h 85% 0 mm 0 W/m2
22:19 7 °C 5 °C 1019.03 hPa N 26 km/h 32 km/h 84% 0 mm 0 W/m2
22:24 7 °C 5 °C 1019.03 hPa NW 21 km/h 35 km/h 84% 0 mm 0 W/m2
22:29 7 °C 5 °C 1018.9 hPa NW 24 km/h 26 km/h 85% 0 mm 0 W/m2
22:34 7 °C 5 °C 1018.86 hPa NW 25 km/h 34 km/h 85% 0 mm 0 W/m2
22:39 7 °C 5 °C 1018.73 hPa WNW 32 km/h 34 km/h 84% 0 mm 0 W/m2
22:44 7 °C 5 °C 1018.8 hPa NW 27 km/h 35 km/h 84% 0 mm 0 W/m2
22:49 7 °C 5 °C 1018.8 hPa NW 29 km/h 35 km/h 85% 0 mm 0 W/m2
22:54 7 °C 5 °C 1018.63 hPa WNW 28 km/h 34 km/h 86% 0 mm 0 W/m2
22:59 7 °C 5 °C 1018.52 hPa WNW 28 km/h 34 km/h 86% 0 mm 0 W/m2
23:04 7 °C 5 °C 1018.42 hPa NNW 27 km/h 32 km/h 86% 0 mm 0 W/m2
23:09 7 °C 5 °C 1018.25 hPa NW 25 km/h 32 km/h 86% 0 mm 0 W/m2
23:14 7 °C 5 °C 1018.25 hPa NW 23 km/h 32 km/h 86% 0 mm 0 W/m2
23:19 7 °C 5 °C 1018.25 hPa WNW 18 km/h 35 km/h 86% 0 mm 0 W/m2
23:24 7 °C 5 °C 1018.29 hPa NNW 23 km/h 32 km/h 86% 0 mm 0 W/m2
23:29 7 °C 5 °C 1018.25 hPa WSW 25 km/h 27 km/h 86% 0 mm 0 W/m2
23:34 7 °C 5 °C 1018.25 hPa WNW 26 km/h 39 km/h 86% 0 mm 0 W/m2
23:39 7 °C 5 °C 1018.25 hPa WNW 25 km/h 39 km/h 86% 0 mm 0 W/m2
23:44 7 °C 5 °C 1018.25 hPa WNW 20 km/h 32 km/h 86% 0 mm 0 W/m2
23:49 7 °C 5 °C 1018.29 hPa NNW 19 km/h 26 km/h 86% 0 mm 0 W/m2
23:54 7 °C 5 °C 1018.29 hPa NW 22 km/h 21 km/h 86% 0 mm 0 W/m2
Compliments of Weather Underground - 2 mb